Location: Caltech
(34.1382°N, 118.1253°W)
Time: 09:34:52
(UTC-07:00)

ADEOS II - Visible Passes

Search period start: 28 May 2017 00:00
Search period end: 07 June 2017 00:00
Orbit: 799 x 802 km, 98.4° (Epoch: 27 May)

Date Brightness Start Highest point End Pass type
(mag) Time Alt. Az. Time Alt. Az. Time Alt. Az.
28 May 4.0 03:46:11 10° NE 03:50:28 25° E 03:54:43 10° SSE visible
29 May 4.6 03:21:24 10° ENE 03:23:51 13° E 03:26:19 10° ESE visible
29 May 2.2 04:58:44 10° N 05:03:54 60° WNW 05:09:03 10° SSW visible
30 May 2.3 04:32:17 10° NNE 04:37:33 75° ESE 04:42:48 10° S visible
31 May 3.2 04:06:10 10° NNE 04:11:06 40° E 04:16:01 10° SSE visible
01 Jun 4.2 03:40:32 10° NE 03:44:35 22° E 03:48:35 10° SE visible
02 Jun 4.7 03:16:14 10° ENE 03:17:56 11° E 03:19:38 10° ESE visible
02 Jun 2.1 04:52:49 10° N 04:58:03 68° WNW 05:03:16 10° SSW visible
03 Jun 2.4 04:26:26 10° NNE 04:31:41 66° ESE 04:36:54 10° S visible
04 Jun 3.5 04:00:25 10° NNE 04:05:13 35° E 04:10:00 10° SSE visible
05 Jun 4.3 03:34:55 10° NE 03:38:40 19° E 03:42:23 10° SE visible
06 Jun 2.1 04:46:56 10° N 04:52:12 77° WNW 04:57:27 10° SSW visible
